Location: Newark
(12.4436°N, 0.6167°W)
Time: 20:50:53
(UTC+00:00)

Vanguard 2 - Pass Details

Date: 10 December 2019
Orbit: 553 x 2938 km, 32.9° (Epoch: 28 January)

Event Time Altitude Azimuth Distance (km) Brightness Sun altitude
Rises 05:52:40 0° 302° (WNW) 6,783 - -5.3°
Exits shadow 05:54:42 - 304° (NW) 6,375 11.5 -4.9°
Reaches altitude 10° 05:57:48 10° 308° (NW) 5,751 11.4 -4.2°
Maximum altitude 06:13:52 42° 15° (NNE) 3,234 10.7 -0.6°
Drops below altitude 10° 06:25:31 10° 82° (E) 4,264 12.5 2.0°
Sets 06:28:39 0° 90° (E) 4,955 13.1 2.7°
